Bedford, Massachusetts, United States (01730)
Lat: 42.49N, Lon: 71.28W
Wx Zone: MAZ005
Local Info
Past Weather Observations for Saturday, April 19, 2014

NOTE: This archive is for the closest National Weather Service station to Bedford. Information may differ from the station used for current weather conditions.

Time Weather Temperature Dewpoint Humidity Pressure Winds Precip Visibility
23:56
Clear
39°F / 4°C 25°F / -4°C 56% 30.42 in
(1030 mb)
NNW 5.8 mph
(NNW 9 kph)
- 10SM
22:56
Clear
43°F / 6°C 25°F / -4°C 49% 30.42 in
(1030 mb)
NW 3.5 mph
(NW 6 kph)
- 10SM
21:56
Clear
45°F / 7°C 25°F / -4°C 46% 30.39 in
(1029 mb)
NNW 5.8 mph
(NNW 9 kph)
- 10SM
20:56
Clear
46°F / 8°C 25°F / -4°C 43% 30.36 in
(1028 mb)
N 15 mph
(N 24 kph)
- 10SM
19:56
Clear
48°F / 9°C 25°F / -4°C 40% 30.33 in
(1027 mb)
N 15 mph
(N 24 kph)
- 10SM
18:56
Clear
52°F / 11°C 27°F / -3°C 38% 30.3 in
(1026 mb)
N 15 mph
(N 24 kph)
- 10SM
17:56
Clear
55°F / 13°C 28°F / -2°C 36% 30.24 in
(1024 mb)
N 12.7 mph
(N 20 kph)
- 10SM
16:56
Partly Cloudy
57°F / 14°C 28°F / -2°C 33% 30.24 in
(1024 mb)
NW 13.8 mph
(NW 22 kph)
- 10SM
15:56
Partly Cloudy
61°F / 16°C 27°F / -3°C 27% 30.21 in
(1023 mb)
NNW 10.4 mph
(NNW 17 kph)
- 10SM
14:56
Clear
61°F / 16°C 28°F / -2°C 29% 30.21 in
(1023 mb)
NNW 20.7 mph
(NNW 33 kph)
- 10SM
13:56
Clear
63°F / 17°C 28°F / -2°C 27% 30.18 in
(1022 mb)
NW 17.3 mph
(NW 28 kph)
- 10SM
12:56
Partly Cloudy
63°F / 17°C 30°F / -1°C 30% 30.18 in
(1022 mb)
NW 13.8 mph
(NW 22 kph)
- 10SM
11:56
Partly Cloudy
61°F / 16°C 30°F / -1°C 31% 30.21 in
(1023 mb)
NNW 17.3 mph
(NNW 28 kph)
- 10SM
10:56
Clear
59°F / 15°C 30°F / -1°C 34% 30.18 in
(1022 mb)
NNW 19.6 mph
(NNW 32 kph)
- 10SM
09:56
Partly Cloudy
57°F / 14°C 34°F / 1°C 41% 30.18 in
(1022 mb)
N 15 mph
(N 24 kph)
- 10SM
08:56
Clear
54°F / 12°C 36°F / 2°C 51% 30.18 in
(1022 mb)
NW 11.5 mph
(NW 19 kph)
- 10SM
07:56
Clear
50°F / 10°C 36°F / 2°C 58% 30.18 in
(1022 mb)
NW 12.7 mph
(NW 20 kph)
- 10SM
06:56
Partly Cloudy
43°F / 6°C 34°F / 1°C 71% 30.18 in
(1022 mb)
SSW 6.9 mph
(SSW 11 kph)
- 10SM
05:56
Clear
36°F / 2°C 34°F / 1°C 93% 30.18 in
(1022 mb)
SSW 4.6 mph
(SSW 7 kph)
- 10SM
04:56
Mostly Cloudy
34°F / 1°C 34°F / 1°C 100% 30.15 in
(1021 mb)
SSW 3.5 mph
(SSW 6 kph)
- 10SM
03:56
Clear
34°F / 1°C 32°F / 0°C 93% 30.18 in
(1022 mb)
Calm - 10SM
02:56
Clear
34°F / 1°C 34°F / 1°C 100% 30.18 in
(1022 mb)
Calm - 10SM
01:56
Clear
36°F / 2°C 34°F / 1°C 93% 30.18 in
(1022 mb)
S 4.6 mph
(S 7 kph)
- 10SM
00:56
Clear
36°F / 2°C 34°F / 1°C 93% 30.21 in
(1023 mb)
Calm - 10SM
Time Weather Temperature Dewpoint Humidity Pressure Winds Precip Visibility


Weather for websites

WeatherForYou.com, LLC is not responsible for any damages or problems caused by this service. Current weather conditions are obtained from the closest station including government and personal stations which may have varying degrees of accuracy. Weather forecasts are derived from the NOAA NDFD. Like all things, this site belongs to Jesus Christ... He just trusts me to maintain it. If you have any questions or comments email webmaster@weatherforyou.com

Copyright © 2014, WeatherForYou.com LLC. All rights reserved.